Other Surface Observations
Issued by NWS

Home | Current Version | Previous Version | Text Only | Print | Product List | Glossary On
Versions: 1 2 3 4 5 6 7 8 9 10 11 12 13 14 15 16 17 18 19 20 21 22 23 24 25 26 27 28 29 30 31 32 33 34 35 36 37 38 39 40 41 42 43 44 45 46 47 48 49 50
000
SXUS52 KTAE 272305
OSOTAE
OSOTAE
North Florida/South Alabama/Southwest Georgia Weather Roundup
National Weather Service Tallahassee Florida
600 PM EST TUE JAN 27 2015

Note: "fair" indicates few or no clouds below 12,000 feet with no
significant weather and/or obstructions to visibility.

!FLZ017-115-028-034-025-280000
...North Florida...

CITY           SKY/WX    TMP DP  RH WIND       PRES   REMARKS
TALLAHASSEE    CLEAR     61  32  33 NW8       29.98R
APALACHICOLA   CLEAR     63  43  48 W10       29.99R
PERRY          CLEAR     60  35  39 NW9       29.97R
CROSS CITY       N/A     60  42  51 W9        29.96R
JACKSONVILLE   CLEAR     55  35  47 NW8       29.94R
$$

!FLZ112-006-005-002-011-280000
...Florida Panhandle...

CITY           SKY/WX    TMP DP  RH WIND       PRES   REMARKS
MARIANNA       CLEAR     60  34  37 NW10      30.00R
BONIFAY        FAIR      59  35  40 NW6       30.02R
PANAMA CITY NW FAIR      61  37  41 NW8       30.00R
TYNDALL AFB    CLEAR     61  45  55 W12       30.01R
TYND DRONE APT FAIR      60  47  61 W7        29.99R
DE FUNIAK SPR  FAIR      60  34  37 NW7       30.02R
EGLIN AFB      CLEAR     64  33  30 NW8       30.02R
DESTIN         CLEAR     65  35  33 NW10      30.02R
HURLBURT       CLEAR     64  31  28 NW7       30.01R
CRESTVIEW      CLEAR     71  34  25 NW9       30.04R
PENSACOLA      CLEAR     64  33  31 N9        30.03R
$$

!ALZ063-066-280000
...South Alabama...

CITY           SKY/WX    TMP DP  RH WIND       PRES   REMARKS
DOTHAN         CLEAR     58  33  39 N16       30.03R
OZARK CAIRNS   CLEAR     59  34  39 NW10      30.01R
FT RUCKER HELI CLEAR     58  35  42 NW7       30.00R
RUCKER HELI 3  FAIR      58  35  42 NW8G15    30.03R
RUCKER HELI 2  FAIR      58  34  40 NW8       30.01R
FLORALA APT    CLEAR     60  32  34 N6        30.04R
ANDALUSIA      CLEAR     63  33  32 N8        30.03R
TROY           CLEAR     58  34  40 N8        30.03R
EUFALA         FAIR      55  31  39 NW3       30.00R
MOBILE         CLEAR     65  33  30 NW7       30.05R
$$

!GAZ120>161-280000
...Southwest and South Central Georgia...

CITY           SKY/WX    TMP DP  RH WIND       PRES   REMARKS
THOMASVILLE    FAIR      57  34  41 NW9       29.98R
BAINBRIDGE     CLEAR     61  36  39 NW10      30.00R
MOODY AFB      CLEAR     55  33  44 NW7       29.96R
VALDOSTA       CLEAR     56  32  40 VRB5      29.97R
MOULTRIE       CLEAR     55  36  47 CALM      29.98R
BLAKELY        CLEAR     59  36  41 NW6       30.00R
ALBANY         CLEAR     57  30  35 NW9       30.00R
TIFTON         FAIR      54  30  40 NW8       29.97R
FITZGERALD     FAIR      54  29  37 NW8       29.99R
CORDELE        FAIR      55  29  37 N7        30.00R
AMERICUS       FAIR      52  30  43 N7        30.01R
HOMERVILLE     FAIR      55  37  50 NW3       29.96R
$$

!GMZ750-755-770-775-280000
...Coastal and Buoy Obs...

STATION/POSITION TIME  TEMP    WIND        PRES    VSBY  WAVE
                       AIR SEA DIR/SP/G                  HT/PER
                 (UTC) (F)     (DEG/KT/KT) (MB)    (MI)  (FT/S)
KEATON BEACH     2300   60     350/  4/  8 1015.0R
CEDAR KEY        2200   60     300/ 10/ 13 1014.5R
C TOWER          2300   60     290/ 22/ 24 1015.5R
APALACHICOLA BUO 2300   66 68  290/ 19/ 23 1015.3R         6/ 7
PANAMA CITY BUOY 2138   64 70  310/ 17/ 19 1016.7R         5/ 6
MOBILE BUOY      2247   63 67  320/ 12/ 14 1018.6R         3/ 6
ORANGE BCH AL BU 2300   60 62  250/ 16/ 17 1016.6R         2/ 7
$$



USA.gov is the U.S. government's official web portal to all federal, state and local government web resources and services.